Amarillo, TX

6:19 AM CDT on July 28, 2017 (GMT -0500)
Amarillo International

Weather History for KAMA - December, 2013

Change the Weather History Date:

Wednesday, December 18, 2013

  Actual Average Record
Temperature  
Mean Temperature 51 °F 36 °F  
Max Temperature 70 °F 49 °F 74 °F (1978)
Min Temperature 32 °F 23 °F -3 °F (1924)
Degree Days  
Heating Degree Days 7 29  
Month to date heating degree days 514 496  
Since 1 July heating degree days 1352 1340  
Cooling Degree Days 0 0  
Month to date cooling degree days 0 0  
Year to date cooling degree days 1806 1399  
Moisture  
Dew Point 21 °F    
Average Humidity 38    
Maximum Humidity 63    
Minimum Humidity 12    
Precipitation  
Precipitation 0.00 in 0.03 in 0.79 in (1898)
Month to date precipitation 0.02 0.41  
Year to date precipitation 14.90 20.06  
Snow  
Snow 0.00 in 0.10 in 5.40 in (1898)
Month to date snowfall 0.2 2.3  
Since 1 July snowfall 4.5 5.0  
Snow Depth 0.00 in    
Sea Level Pressure  
Sea Level Pressure 29.97 in    
Wind  
Wind Speed 16 mph (SSW)    
Max Wind Speed 33 mph    
Max Gust Speed 41 mph    
Visibility 10 miles    
Events      
T = Trace of Precipitation, MM = Missing Value Source: NWS Daily Summary

Daily Weather History Graph

Daily Weather History Graph

Search for Another Location

Airport or City:

Trip Planner

Search our weather history database for the weather conditions in past years. The results will help you decide how hot, cold, wet, or windy it might be!

Date:

Astronomy

Dec. 18, 2013 Rise Set
Actual Time 7:50 AM CST 5:37 PM CST
Civil Twilight 7:21 AM CST 6:05 PM CST
Nautical Twilight 6:50 AM CST 6:37 PM CST
Astronomical Twilight 6:19 AM CST 7:08 PM CST
Moon 7:07 PM CST (12/18) 8:33 AM CST (12/18)
Length of Visible Light 10h 43m
Length of Day
9h 47m
Full, 98% of the Moon is Illuminated
Dec 18
Full
Dec 25
Last Quarter
Jan 1
New
Jan 7
First Quarter
Jan 15
Full

Hourly Weather History & Observations

Time (CST) Temp. Windchill Dew Point Humidity Pressure Visibility Wind Dir Wind Speed Gust Speed Precip Events Conditions
12:53 AM 37.9 °F 29.6 °F 21.0 °F 51% 30.19 in 10.0 mi SSW 13.8 mph - N/A   Clear
1:53 AM 36.0 °F 27.5 °F 21.0 °F 55% 30.16 in 10.0 mi SSW 12.7 mph - N/A   Clear
2:53 AM 34.0 °F 25.5 °F 21.9 °F 61% 30.15 in 10.0 mi SSW 11.5 mph - N/A   Clear
3:53 AM 35.1 °F 27.4 °F 21.9 °F 59% 30.13 in 10.0 mi SSW 10.4 mph - N/A   Clear
4:53 AM 32.0 °F 22.5 °F 21.0 °F 64% 30.12 in 10.0 mi SSW 12.7 mph - N/A   Clear
5:53 AM 35.1 °F 25.9 °F 21.0 °F 57% 30.11 in 10.0 mi SW 13.8 mph - N/A   Clear
6:53 AM 34.0 °F 25.0 °F 21.9 °F 61% 30.10 in 10.0 mi SW 12.7 mph - N/A   Clear
7:53 AM 34.0 °F 24.2 °F 21.9 °F 61% 30.09 in 10.0 mi SSW 15.0 mph - N/A   Clear
8:53 AM 43.0 °F 35.1 °F 24.1 °F 47% 30.05 in 10.0 mi SSW 17.3 mph 26.5 mph N/A   Clear
10:53 AM - - - N/A% - - North - - N/A   Unknown
11:53 AM 64.0 °F - 21.0 °F 19% 30.02 in 10.0 mi SW 28.8 mph 33.4 mph N/A   Clear
12:53 PM 66.0 °F - 19.9 °F 17% 29.96 in 10.0 mi SW 24.2 mph 33.4 mph N/A   Clear
1:53 PM 68.0 °F - 14.0 °F 12% 29.91 in 10.0 mi SW 32.2 mph 40.3 mph N/A   Clear
2:53 PM 68.0 °F - 16.0 °F 14% 29.88 in 10.0 mi SSW 26.5 mph 34.5 mph N/A   Clear
3:53 PM 68.0 °F - 19.0 °F 15% 29.87 in 10.0 mi SSW 24.2 mph 34.5 mph N/A   Clear
4:53 PM 64.0 °F - 18.0 °F 17% 29.85 in 10.0 mi SSW 18.4 mph - N/A   Clear
5:53 PM 60.1 °F - 19.9 °F 21% 29.84 in 10.0 mi SSW 15.0 mph - N/A   Clear
6:53 PM 55.0 °F - 21.9 °F 28% 29.85 in 10.0 mi SSW 10.4 mph - N/A   Clear
7:53 PM 51.1 °F - 21.0 °F 31% 29.84 in 10.0 mi South 15.0 mph - N/A   Clear
8:53 PM 48.9 °F - 21.0 °F 33% 29.82 in 10.0 mi South 13.8 mph - N/A   Clear
9:53 PM 48.9 °F - 21.9 °F 35% 29.81 in 10.0 mi South 13.8 mph - N/A   Clear
10:53 PM 46.9 °F - 23.0 °F 39% 29.80 in 10.0 mi SW 10.4 mph - N/A   Clear
11:53 PM 50.0 °F - 21.9 °F 33% 29.69 in 10.0 mi SW 18.4 mph - N/A   Clear